カタログに戻る

STARLINK-34026

運用中通信VLEO
NORAD 63842·PAYLOAD·🇺🇸 United States

打ち上げ May 7, 2025 から Cape Canaveral Space Force Station

Loading…

次のパス (今後24時間)

TLE

最新Source: CelesTrak SupGP

元期: Sep 14, 2026, 14:43 UTC

1 63842C 25093G   26257.61368056 -.00006951  00000+0 -25171-3 0  2577
2 63842  43.0004  91.1881 0001431 262.4249  73.8843 15.27590035    13

AllMySatでSTARLINK-34026をリアルタイム追跡

Download on the App Store